H1 CPF 2 NER 2023 7 26 9 207 01 glonass143 H2 2007501 9143 46805 2023 7 26 0 0 0 2023 7 29 23 45 0 900 1 1 0 0 0 1 H9 10 0 60151 0.00000 0 -12153722.684 14212899.896 -17323329.373 10 0 60151 900.00000 0 -11577339.459 12024415.326 -19266323.252 10 0 60151 1800.00000 0 -11129270.886 9586032.689 -20834394.336 10 0 60151 2700.00000 0 -10845486.814 6954018.218 -21997059.255 10 0 60151 3600.00000 0 -10751612.944 4191622.318 -22731739.382 10 0 60151 4500.00000 0 -10861781.395 1366678.527 -23024197.801 10 0 60151 5400.00000 0 -11177984.413 -1450984.074 -22868812.405 10 0 60151 6300.00000 0 -11689958.293 -4192207.468 -22268680.230 10 0 60151 7200.00000 0 -12375602.109 -6791139.665 -21235551.438 10 0 60151 8100.00000 0 -13201913.246 -9187728.890 -19789594.656 10 0 60151 9000.00000 0 -14126399.946 -11329973.940 -17958998.554 10 0 60151 9900.00000 0 -15098910.976 -13175837.965 -15779417.717 10 0 60151 10800.00000 0 -16063804.945 -14694747.098 -13293273.823 10 0 60151 11700.00000 0 -16962367.585 -15868612.862 -10548925.904 10 0 60151 12600.00000 0 -17735374.792 -16692337.202 -7599726.100 10 0 60151 13500.00000 0 -18325693.184 -17173780.749 -4502979.497 10 0 60151 14400.00000 0 -18680808.396 -17333197.407 -1318828.531 10 0 60151 15300.00000 0 -18755174.402 -17202160.712 1890916.030 10 0 60151 16200.00000 0 -18512284.827 -16822028.665 5063974.572 10 0 60151 17100.00000 0 -17926378.979 -16242012.946 8138805.159 10 0 60151 18000.00000 0 -16983710.764 -15516934.858 11055793.571 10 0 60151 18900.00000 0 -15683327.062 -14704763.152 13758403.971 10 0 60151 19800.00000 0 -14037322.653 -13864037.725 16194268.243 10 0 60151 20700.00000 0 -12070560.680 -13051287.647 18316193.422 10 0 60151 21600.00000 0 -9819869.692 -12318551.804 20083068.485 10 0 60151 22500.00000 0 -7332749.979 -11711105.896 21460653.761 10 0 60151 23400.00000 0 -4665642.029 -11265490.711 22422238.556 10 0 60151 24300.00000 0 -1881827.852 -11007923.891 22949155.037 10 0 60151 25200.00000 0 950949.128 -10953161.424 23031139.028 10 0 60151 26100.00000 0 3763048.342 -11103856.473 22666531.031 10 0 60151 27000.00000 0 6485575.705 -11450442.561 21862313.575 10 0 60151 27900.00000 0 9052998.429 -11971546.450 20633983.763 10 0 60151 28800.00000 0 11405623.756 -12634914.114 19005262.794 10 0 60151 29700.00000 0 13491839.745 -13398811.828 17007647.101 10 0 60151 30600.00000 0 15270025.650 -14213844.463 14679808.660 10 0 60151 31500.00000 0 16710052.802 -15025115.395 12066854.951 10 0 60151 32400.00000 0 17794313.593 -15774637.788 9219461.841 10 0 60151 33300.00000 0 18518235.605 -16403895.990 6192895.367 10 0 60151 34200.00000 0 18890259.308 -16856448.936 3045940.914 10 0 60151 35100.00000 0 18931280.260 -17080465.213 -160239.614 10 0 60151 36000.00000 0 18673579.369 -17031081.812 -3363300.198 10 0 60151 36900.00000 0 18159286.516 -16672485.709 -6500928.962 10 0 60151 37800.00000 0 17438442.790 -15979628.879 -9512067.786 10 0 60151 38700.00000 0 16566743.769 -14939502.725 -12338108.635 10 0 60151 39600.00000 0 15603059.932 -13551916.579 -14924042.308 10 0 60151 40500.00000 0 14606839.815 -11829745.947 -17219536.391 10 0 60151 41400.00000 0 13635506.435 -9798638.743 -19179920.721 10 0 60151 42300.00000 0 12741957.694 -7496190.749 -20767060.655 10 0 60151 43200.00000 0 11972276.808 -4970624.020 -21950100.982 10 0 60151 44100.00000 0 11363749.684 -2279022.889 -22706065.989 10 0 60151 45000.00000 0 10943272.915 514799.154 -23020304.243 10 0 60151 45900.00000 0 10726219.296 3342713.061 -22886769.797 10 0 60151 46800.00000 0 10715808.230 6134868.061 -22308134.800 10 0 60151 47700.00000 0 10903006.973 8822358.007 -21295731.744 10 0 60151 48600.00000 0 11266966.182 11339849.700 -19869326.908 10 0 60151 49500.00000 0 11775970.636 13628064.376 -18056729.721 10 0 60151 50400.00000 0 12388864.366 15636009.722 -15893245.958 10 0 60151 51300.00000 0 13056889.365 17322870.393 -13420985.629 10 0 60151 52200.00000 0 13725859.731 18659479.316 -10688039.220 10 0 60151 53100.00000 0 14338578.960 19629309.634 -7747538.595 10 0 60151 54000.00000 0 14837397.907 20228947.310 -4656621.025 10 0 60151 54900.00000 0 15166805.127 20468026.189 -1475316.789 10 0 60151 55800.00000 0 15275939.973 20368629.819 1734617.744 10 0 60151 56700.00000 0 15120922.241 19964186.671 4910898.603 10 0 60151 57600.00000 0 14666899.979 19297906.562 7991920.882 10 0 60151 58500.00000 0 13889729.050 18420825.111 10917950.060 10 0 60151 59400.00000 0 12777213.600 17389539.275 13632275.036 10 0 60151 60300.00000 0 11329855.043 16263729.604 16082300.905 10 0 60151 61200.00000 0 9561077.710 15103573.474 18220560.782 10 0 60151 62100.00000 0 7496921.109 13967157.688 20005627.869 10 0 60151 63000.00000 0 5175210.756 12907998.559 21402910.931 10 0 60151 63900.00000 0 2644241.087 11972772.807 22385318.620 10 0 60151 64800.00000 0 -38976.065 11199353.640 22933780.609 10 0 60151 65700.00000 0 -2810826.154 10615233.592 23037616.038 10 0 60151 66600.00000 0 -5603483.547 10236399.615 22694742.454 10 0 60151 67500.00000 0 -8347482.491 10066707.253 21911721.226 10 0 60151 68400.00000 0 -10974362.365 10097780.024 20703638.162 10 0 60151 69300.00000 0 -13419278.752 10309438.522 19093820.957 10 0 60151 70200.00000 0 -15623473.076 10670641.656 17113397.980 10 0 60151 71100.00000 0 -17536498.912 11140901.135 14800705.815 10 0 60151 72000.00000 0 -19118112.756 11672110.364 12200555.857 10 0 60151 72900.00000 0 -20339750.582 12210711.271 9363373.147 10 0 60151 73800.00000 0 -21185528.454 12700108.097 6344223.220 10 0 60151 74700.00000 0 -21652725.081 13083226.239 3201745.388 10 0 60151 75600.00000 0 -21751725.859 13305107.726 -2987.079 10 0 60151 76500.00000 0 -21505430.581 13315432.844 -3207657.499 10 0 60151 77400.00000 0 -20948149.718 13070860.156 -6349923.390 10 0 60151 78300.00000 0 -20124035.952 12537084.589 -9368636.642 10 0 60151 79200.00000 0 -19085117.474 11690524.993 -12205041.629 10 0 60151 80100.00000 0 -17889016.628 10519568.242 -14803926.895 10 0 60151 81000.00000 0 -16596450.822 9025315.777 -17114707.128 10 0 60151 81900.00000 0 -15268621.904 7221799.606 -19092413.661 10 0 60151 82800.00000 0 -13964604.750 5135657.378 -20698573.684 10 0 60151 83700.00000 0 -12738845.689 2805279.081 -21901960.849 10 0 60151 84600.00000 0 -11638876.388 279460.185 -22679202.683 10 0 60151 85500.00000 0 -10703339.512 -2384383.025 -23015233.175 10 0 60152 0.00000 0 -9960408.994 -5122361.699 -22903582.152 10 0 60152 900.00000 0 -9426670.464 -7866538.513 -22346496.093 10 0 60152 1800.00000 0 -9106509.071 -10547523.249 -21354888.727 10 0 60152 2700.00000 0 -8992028.190 -13097136.986 -19948122.604 10 0 60152 3600.00000 0 -9063502.344 -15451030.773 -18153626.268 10 0 60152 4500.00000 0 -9290343.757 -17551151.651 -16006354.818 10 0 60152 5400.00000 0 -9632540.787 -19347953.722 -13548104.555 10 0 60152 6300.00000 0 -10042506.555 -20802262.884 -10826695.284 10 0 60152 7200.00000 0 -10467258.920 -21886718.374 -7895036.389 10 0 60152 8100.00000 0 -10850838.954 -22586732.046 -4810095.124 10 0 60152 9000.00000 0 -11136865.213 -22900926.542 -1631787.411 10 0 60152 9900.00000 0 -11271115.407 -22841035.377 1578186.957 10 0 60152 10800.00000 0 -11204026.102 -22431270.480 4757541.824 10 0 60152 11700.00000 0 -10893004.670 -21707185.060 7844611.493 10 0 60152 12600.00000 0 -10304455.773 -20714080.630 10779543.321 10 0 60152 13500.00000 0 -9415436.794 -19505025.957 13505453.117 10 0 60152 14400.00000 0 -8214872.313 -18138571.647 15969521.305 10 0 60152 15300.00000 0 -6704276.199 -16676256.465 18124009.106 10 0 60152 16200.00000 0 -4897950.495 -15180009.823 19927175.821 10 0 60152 17100.00000 0 -2822651.917 -13709558.787 21344080.309 10 0 60152 18000.00000 0 -516738.836 -12319947.498 22347251.977 10 0 60152 18900.00000 0 1971167.029 -11059271.902 22917219.130 10 0 60152 19800.00000 0 4583950.054 -9966723.634 23042885.042 10 0 60152 20700.00000 0 7258129.411 -9071023.991 22721744.827 10 0 60152 21600.00000 0 9926260.298 -8389312.787 21959938.915 10 0 60152 22500.00000 0 12519509.733 -7926538.105 20772141.728 10 0 60152 23400.00000 0 14970301.369 -7675372.292 19181287.074 10 0 60152 24300.00000 0 17214920.695 -7616657.763 17218134.558 10 0 60152 25200.00000 0 19195973.205 -7720364.141 14920684.320 10 0 60152 26100.00000 0 20864593.620 -7947016.876 12333450.269 10 0 60152 27000.00000 0 22182314.260 -8249537.554 9506604.805 10 0 60152 27900.00000 0 23122514.335 -8575418.579 6495010.756 10 0 60152 28800.00000 0 23671389.173 -8869140.441 3357158.759 10 0 60152 29700.00000 0 23828398.291 -9074729.143 154030.526 10 0 60152 30600.00000 0 23606173.073 -9138344.997 -3052089.771 10 0 60152 31500.00000 0 23029887.602 -9010792.259 -6198832.339 10 0 60152 32400.00000 0 22136119.001 -8649842.126 -9224962.399 10 0 60152 33300.00000 0 20971245.374 -8022269.311 -12071579.954 10 0 60152 34200.00000 0 19589449.171 -7105514.455 -14683274.327 10 0 60152 35100.00000 0 18050410.591 -5888900.493 -17009210.112 10 0 60152 36000.00000 0 16416788.802 -4374350.082 -19004122.665 10 0 60152 36900.00000 0 14751597.609 -2576572.409 -20629203.228 10 0 60152 37800.00000 0 13115586.531 -522710.286 -21852856.221 10 0 60152 38700.00000 0 11564737.690 1748538.758 -22651313.962 10 0 60152 39600.00000 0 10147983.772 4188291.349 -23009097.047 10 0 60152 40500.00000 0 8905242.643 6739280.520 -22919311.797 10 0 60152 41400.00000 0 7865850.531 9338016.593 -22383779.425 10 0 60152 42300.00000 0 7047458.711 11917216.848 -21412994.847 10 0 60152 43200.00000 0 6455438.872 14408403.060 -20025916.374 10 0 60152 44100.00000 0 6082820.833 16744558.927 -18249590.714 10 0 60152 45000.00000 0 5910763.831 18862736.989 -16118620.895 10 0 60152 45900.00000 0 5909540.092 20706506.754 -13674487.692 10 0 60152 46800.00000 0 6039987.887 22228142.482 -10964737.978 10 0 60152 47700.00000 0 6255371.532 23390459.924 -8042056.028 10 0 60152 48600.00000 0 6503568.727 24168226.084 -4963236.099 10 0 60152 49500.00000 0 6729491.936 24549084.047 -1788076.508 10 0 60152 50400.00000 0 6877640.777 24533955.189 1421782.959 10 0 60152 51300.00000 0 6894677.027 24136903.071 4604057.469 10 0 60152 52200.00000 0 6731913.079 23384465.856 7697024.006 10 0 60152 53100.00000 0 6347608.511 22314486.255 10640715.148 10 0 60152 54000.00000 0 5708977.713 20974488.912 13378076.746 10 0 60152 54900.00000 0 4793823.741 19419673.807 15856067.423 10 0 60152 55800.00000 0 3591729.390 17710610.034 18026679.065 10 0 60152 56700.00000 0 2104755.004 15910726.409 19847859.312 10 0 60152 57600.00000 0 347613.061 14083703.467 21284319.004 10 0 60152 58500.00000 0 -1652688.708 12290875.186 22308209.826 10 0 60152 59400.00000 0 -3857721.997 10588748.015 22899659.826 10 0 60152 60300.00000 0 -6218995.435 9026739.757 23047157.095 10 0 60152 61200.00000 0 -8679740.026 7645231.626 22747774.506 10 0 60152 62100.00000 0 -11177050.029 6474013.815 22007231.212 10 0 60152 63000.00000 0 -13644292.012 5531188.675 20839789.379 10 0 60152 63900.00000 0 -16013683.499 4822576.784 19267987.470 10 0 60152 64800.00000 0 -18218935.317 4341650.422 17322214.331 10 0 60152 65700.00000 0 -20197848.696 4069997.109 15040131.174 10 0 60152 66600.00000 0 -21894759.479 3978293.827 12465951.507 10 0 60152 67500.00000 0 -23262727.699 4027751.069 9649591.872 10 0 60152 68400.00000 0 -24265380.839 4171966.005 6645708.966 10 0 60152 69300.00000 0 -24878333.171 4359106.537 3512641.248 10 0 60152 70200.00000 0 -25090121.050 4534333.731 311275.378 10 0 60152 71100.00000 0 -24902614.167 4642359.601 -2896140.384 10 0 60152 72000.00000 0 -24330884.873 4630031.189 -6047212.199 10 0 60152 72900.00000 0 -23402540.545 4448830.313 -9080621.688 10 0 60152 73800.00000 0 -22156546.855 4057181.859 -11937327.334 10 0 60152 74700.00000 0 -20641591.466 3422471.313 -14561721.816 10 0 60152 75600.00000 0 -18914057.253 2522684.703 -16902721.870 10 0 60152 76500.00000 0 -17035690.689 1347600.042 -18914768.718 10 0 60152 77400.00000 0 -15071063.937 -100521.389 -20558719.036 10 0 60152 78300.00000 0 -13084937.681 -1806774.398 -21802608.887 10 0 60152 79200.00000 0 -11139635.733 -3743987.738 -22622275.729 10 0 60152 80100.00000 0 -9292541.604 -5873625.533 -23001826.593 10 0 60152 81000.00000 0 -7593821.819 -8147175.250 -22933943.666 10 0 60152 81900.00000 0 -6084470.794 -10507964.715 -22420021.777 10 0 60152 82800.00000 0 -4794758.390 -12893332.629 -21470135.537 10 0 60152 83700.00000 0 -3743144.001 -15237062.275 -20102837.214 10 0 60152 84600.00000 0 -2935701.328 -17471977.090 -18344789.628 10 0 60152 85500.00000 0 -2366076.368 -19532589.983 -16230241.502 10 0 60153 0.00000 0 -2015978.761 -21357695.929 -13800355.962 10 0 60153 900.00000 0 -1856183.987 -22892800.814 -11102404.123 10 0 60153 1800.00000 0 -1848003.025 -24092283.054 -8188842.975 10 0 60153 2700.00000 0 -1945155.459 -24921201.374 -5116291.466 10 0 60153 3600.00000 0 -2095966.228 -25356671.254 -1944428.094 10 0 60153 4500.00000 0 -2245792.008 -25388754.191 1265169.477 10 0 60153 5400.00000 0 -2339573.928 -25020823.174 4450219.745 10 0 60153 6300.00000 0 -2324408.223 -24269389.972 7548944.306 10 0 60153 7200.00000 0 -2152025.841 -23163402.254 10501262.816 10 0 60153 8100.00000 0 -1781076.117 -21743040.777 13249952.964 10 0 60153 9000.00000 0 -1179118.014 -20058067.459 15741753.290 10 0 60153 9900.00000 0 -324234.913 -18165793.786 17928387.973 10 0 60153 10800.00000 0 793795.257 -16128754.403 19767494.482 10 0 60153 11700.00000 0 2172824.160 -14012182.689 21223436.979 10 0 60153 12600.00000 0 3798180.511 -11881393.005 22267990.568 10 0 60153 13500.00000 0 5643048.259 -9799177.824 22880883.987 10 0 60153 14400.00000 0 7669361.007 -7823327.090 23050190.862 10 0 60153 15300.00000 0 9829176.892 -6004372.016 22772562.332 10 0 60153 16200.00000 0 12066478.332 -4383646.120 22053296.567 10 0 60153 17100.00000 0 14319323.424 -2991743.299 20906243.539 10 0 60153 18000.00000 0 16522261.074 -1847436.421 19353546.224 10 0 60153 18900.00000 0 18608910.703 -957100.948 17425222.313 10 0 60153 19800.00000 0 20514600.180 -314667.312 15158593.422 10 0 60153 20700.00000 0 22178952.654 97896.170 12597571.680 10 0 60153 21600.00000 0 23548314.547 309590.220 9791816.448 10 0 60153 22500.00000 0 24577923.065 358923.189 6795776.584 10 0 60153 23400.00000 0 25233721.916 292043.018 3667636.281 10 0 60153 24300.00000 0 25493748.381 160541.687 468184.688 10 0 60153 25200.00000 0 25349032.551 19025.473 -2740368.610 10 0 60153 26100.00000 0 24803970.028 -77445.454 -5895608.707 10 0 60153 27000.00000 0 23876151.584 -75938.651 -8936136.723 10 0 60153 27900.00000 0 22595656.316 71858.306 -11802772.715 10 0 60153 28800.00000 0 21003837.644 407341.784 -14439715.724 10 0 60153 29700.00000 0 19151653.087 962990.960 -16795637.480 10 0 60153 30600.00000 0 17097608.111 1760747.673 -18824687.716 10 0 60153 31500.00000 0 14905400.664 2810847.092 -20487390.975 10 0 60153 32400.00000 0 12641365.545 4111149.787 -21751417.154 10 0 60153 33300.00000 0 10371825.971 5647004.452 -22592210.796 10 0 60153 34200.00000 0 8160463.413 7391647.957 -22993467.022 10 0 60153 35100.00000 0 6065815.612 9307126.673 -22947445.217 10 0 60153 36000.00000 0 4139007.005 11345701.039 -22455114.774 10 0 60153 36900.00000 0 2421805.743 13451674.922 -21526130.525 10 0 60153 37800.00000 0 945087.453 15563573.538 -20178638.767 10 0 60153 38700.00000 0 -272231.336 17616579.057 -18438918.007 10 0 60153 39600.00000 0 -1223747.047 19545122.193 -16340861.741 10 0 60153 40500.00000 0 -1915588.746 21285521.530 -13925313.582 10 0 60153 41400.00000 0 -2365904.695 22778560.379 -11239267.880 10 0 60153 42300.00000 0 -2603839.186 23971893.478 -8334951.626 10 0 60153 43200.00000 0 -2668044.443 24822183.083 -5268805.771 10 0 60153 44100.00000 0 -2604791.906 25296875.351 -2100385.983 10 0 60153 45000.00000 0 -2465763.872 25375543.009 1108795.420 10 0 60153 45900.00000 0 -2305619.843 25050738.616 4296463.653 10 0 60153 46800.00000 0 -2179441.139 24328323.247 7400788.344 10 0 60153 47700.00000 0 -2140162.254 23227257.407 10361579.617 10 0 60153 48600.00000 0 -2236097.718 21778863.488 13121450.274 10 0 60153 49500.00000 0 -2508668.954 20025591.001 15626921.884 10 0 60153 50400.00000 0 -2990427.040 18019336.389 17829453.812 10 0 60153 51300.00000 0 -3703454.684 15819387.534 19686376.016 10 0 60153 52200.00000 0 -4658214.842 13490078.283 21161708.359 10 0 60153 53100.00000 0 -5852894.708 11098250.125 22226851.444 10 0 60153 54000.00000 0 -7273273.291 8710625.738 22861136.425 10 0 60153 54900.00000 0 -8893119.134 6391202.547 23052223.798 10 0 60153 55800.00000 0 -10675102.828 4198773.486 22796343.839 10 0 60153 56700.00000 0 -12572187.744 2184676.777 22098374.095 10 0 60153 57600.00000 0 -14529442.584 390867.157 20971752.143 10 0 60153 58500.00000 0 -16486201.777 -1151612.149 19438224.667 10 0 60153 59400.00000 0 -18378485.075 -2423693.872 17527436.802 10 0 60153 60300.00000 0 -20141576.626 -3418843.738 15276368.576 10 0 60153 61200.00000 0 -21712656.607 -4143087.194 12728628.226 10 0 60153 62100.00000 0 -23033375.828 -4614504.955 9933614.961 10 0 60153 63000.00000 0 -24052265.497 -4862218.778 6945566.485 10 0 60153 63900.00000 0 -24726880.648 -4924910.270 3822509.161 10 0 60153 64800.00000 0 -25025586.511 -4848935.494 625130.928 10 0 60153 65700.00000 0 -24928911.698 -4686115.444 -2584401.051 10 0 60153 66600.00000 0 -24430410.185 -4491296.437 -5743654.518 10 0 60153 67500.00000 0 -23536994.673 -4319784.600 -8791153.703 10 0 60153 68400.00000 0 -22268726.318 -4224764.137 -11667583.689 10 0 60153 69300.00000 0 -20658068.907 -4254809.993 -14316953.093 10 0 60153 70200.00000 0 -18748638.324 -4451601.493 -16687691.529 10 0 60153 71100.00000 0 -16593499.587 -4847935.090 -18733659.732 10 0 60153 72000.00000 0 -14253082.910 -5466121.451 -20415052.079 10 0 60153 72900.00000 0 -11792806.255 -6316835.730 -21699173.697 10 0 60153 73800.00000 0 -9280504.052 -7398470.508 -22561076.959 10 0 60153 74700.00000 0 -6783769.750 -8697019.470 -22984045.180 10 0 60153 75600.00000 0 -4367323.147 -10186497.333 -22959914.412 10 0 60153 76500.00000 0 -2090512.127 -11829878.896 -22489227.521 10 0 60153 77400.00000 0 -5052.503 -13580518.117 -21581217.982 10 0 60153 78300.00000 0 1846900.596 -15383987.911 -20253624.139 10 0 60153 79200.00000 0 3434270.503 -17180263.736 -18532337.898 10 0 60153 80100.00000 0 4738103.990 -18906159.463 -16450895.020 10 0 60153 81000.00000 0 5752101.463 -20497913.526 -14049817.173 10 0 60153 81900.00000 0 6482612.042 -21893816.986 -11375818.762 10 0 60153 82800.00000 0 6948095.648 -23036773.357 -8480894.228 10 0 60153 83700.00000 0 7178076.613 -23876682.950 -5421303.803 10 0 60153 84600.00000 0 7211634.625 -24372551.838 -2256477.702 10 0 60153 85500.00000 0 7095498.168 -24494237.216 952139.615 10 0 60154 0.00000 0 6881822.234 -24223756.209 4142282.135 10 0 60154 900.00000 0 6625744.981 -23556103.409 7252070.267 10 0 60154 1800.00000 0 6382827.517 -22499543.597 10221206.294 10 0 60154 2700.00000 0 6206484.943 -21075367.283 12992139.915 10 0 60154 3600.00000 0 6145517.475 -19317119.706 15511177.298 10 0 60154 4500.00000 0 6241845.682 -17269335.537 17729514.368 10 0 60154 5400.00000 0 6528545.162 -14985831.908 19604174.717 10 0 60154 6300.00000 0 7028263.322 -12527630.495 21098834.837 10 0 60154 7200.00000 0 7752084.855 -9960594.479 22184521.534 10 0 60154 8100.00000 0 8698893.890 -7352877.715 22840168.872 10 0 60154 9000.00000 0 9855260.110 -4772290.916 23053024.514 10 0 60154 9900.00000 0 11195854.577 -2283693.014 22818897.993 10 0 60154 10800.00000 0 12684379.028 53485.356 22142246.190 10 0 60154 11700.00000 0 14274971.215 2187484.645 21036094.103 10 0 60154 12600.00000 0 15914029.059 4076133.357 19521791.801 10 0 60154 13500.00000 0 17542378.790 5688360.413 17628611.382 10 0 60154 14400.00000 0 19097697.761 7005240.616 15393190.646 10 0 60154 15300.00000 0 20517091.452 8020530.067 12858833.077 10 0 60154 16200.00000 0 21739717.352 8740669.542 10074676.627 10 0 60154 17100.00000 0 22709345.825 9184255.863 7094746.454 10 0 60154 18000.00000 0 23376750.101 9381003.733 3976909.390 10 0 60154 18900.00000 0 23701824.252 9370241.976 781750.161 10 0 60154 19800.00000 0 23655339.005 9199007.998 -2428608.772 10 0 60154 20700.00000 0 23220260.223 8919821.529 -5591720.296 10 0 60154 21600.00000 0 22392573.209 8588232.539 -8646034.391 10 0 60154 22500.00000 0 21181576.843 8260248.063 -11532103.851 10 0 60154 23400.00000 0 19609634.046 7989747.948 -14193749.534 10 0 60154 24300.00000 0 17711388.147 7826000.111 -16579161.529 10 0 60154 25200.00000 0 15532477.467 7811381.620 -18641914.031 10 0 60154 26100.00000 0 13127801.640 7979403.119 -20341873.600 10 0 60154 27000.00000 0 10559412.184 8353121.022 -21645982.782 10 0 60154 27900.00000 0 7894115.509 8944005.379 -22528903.832 10 0 60154 28800.00000 0 5200888.552 9751311.732 -22973510.114 10 0 60154 29700.00000 0 2548214.859 10761983.931 -22971215.963 10 0 60154 30600.00000 0 1451.974 11951092.265 -22522139.025 10 0 60154 31500.00000 0 -2379660.526 13282788.658 -21635092.340 10 0 60154 32400.00000 0 -4543249.217 14711738.829 -20327406.772 10 0 60154 33300.00000 0 -6447218.519 16184971.263 -18624587.621 10 0 60154 34200.00000 0 -8060747.404 17644065.243 -16559812.396 10 0 60154 35100.00000 0 -9365310.200 19027585.979 -14173279.819 10 0 60154 36000.00000 0 -10355180.547 20273664.448 -11511422.896 10 0 60154 36900.00000 0 -11037399.281 21322613.485 -8626001.647 10 0 60154 37800.00000 0 -11431209.521 22119470.128 -5573093.369 10 0 60154 38700.00000 0 -11566984.585 22616357.374 -2412000.311 10 0 60154 39600.00000 0 -11484695.553 22774566.122 795903.678 10 0 60154 40500.00000 0 -11231984.570 22566269.896 3988364.850 10 0 60154 41400.00000 0 -10861926.336 21975800.475 7103456.300 10 0 60154 42300.00000 0 -10430573.121 21000430.999 10080776.178 10 0 60154 43200.00000 0 -9994387.462 19650633.819 12862614.231 10 0 60154 44100.00000 0 -9607671.061 17949802.320 15395064.364 10 0 60154 45000.00000 0 -9320098.318 15933448.209 17629062.115 10 0 60154 45900.00000 0 -9174458.168 13647907.479 19521327.652 10 0 60154 46800.00000 0 -9204699.044 11148608.449 21035196.873 10 0 60154 47700.00000 0 -9434358.901 8497973.202 22141325.350 10 0 60154 48600.00000 0 -9875446.184 5763038.644 22818252.340 10 0 60154 49500.00000 0 -10527818.843 3012894.743 23052814.621 10 0 60154 50400.00000 0 -11379087.879 316044.966 22840402.519 10 0 60154 51300.00000 0 -12405050.233 -2262203.016 22185053.321 10 0 60154 52200.00000 0 -13570633.930 -4662209.443 21099379.979 10 0 60154 53100.00000 0 -14831317.129 -6832235.963 19604335.902 10 0 60154 54000.00000 0 -16134962.949 -8730348.788 17728819.509 10 0 60154 54900.00000 0 -17423994.454 -10325913.092 15509125.113 10 0 60154 55800.00000 0 -18637819.626 -11600616.959 12988249.622 10 0 60154 56700.00000 0 -19715405.300 -12548982.469 10215067.376 10 0 60154 57600.00000 0 -20597892.239 -13178342.798 7243388.174 10 0 60154 58500.00000 0 -21231141.233 -13508286.436 4130916.135 10 0 60154 59400.00000 0 -21568102.490 -13569592.091 938129.295 10 0 60154 60300.00000 0 -21570907.527 -13402699.404 -2272898.271 10 0 60154 61200.00000 0 -21212594.135 -13055780.446 -5439708.409 10 0 60154 62100.00000 0 -20478390.270 -12582494.063 -8500680.717 10 0 60154 63000.00000 0 -19366501.268 -12039518.833 -11396239.556 10 0 60154 63900.00000 0 -17888365.820 -11483969.929 -14070021.767 10 0 60154 64800.00000 0 -16068368.693 -10970810.234 -16469981.430 10 0 60154 65700.00000 0 -13943021.274 -10550366.248 -18549409.401 10 0 60154 66600.00000 0 -11559643.596 -10266054.813 -20267847.146 10 0 60154 67500.00000 0 -8974602.593 -10152417.526 -21591876.807 10 0 60154 68400.00000 0 -6251179.966 -10233546.520 -22495772.031 10 0 60154 69300.00000 0 -3457158.610 -10521968.438 -22961997.054 10 0 60154 70200.00000 0 -662228.135 -11018033.895 -22981544.635 10 0 60154 71100.00000 0 2064682.606 -11709838.205 -22554106.688 10 0 60154 72000.00000 0 4658035.151 -12573676.613 -21688074.736 10 0 60154 72900.00000 0 7058164.295 -13575014.665 -20400370.599 10 0 60154 73800.00000 0 9213511.578 -14669932.648 -18716110.992 10 0 60154 74700.00000 0 11082517.323 -15806983.018 -16668112.868 10 0 60154 75600.00000 0 12635093.633 -16929382.372 -14296249.408 10 0 60154 76500.00000 0 13853618.389 -17977445.448 -11646669.403 10 0 60154 77400.00000 0 14733410.354 -18891158.455 -8770895.465 10 0 60154 78300.00000 0 15282667.329 -19612783.185 -5724818.840 10 0 60154 79200.00000 0 15521871.798 -20089382.124 -2567610.649 10 0 60154 80100.00000 0 15482690.804 -20275158.134 639429.000 10 0 60154 81000.00000 0 15206417.966 -20133510.174 3834061.367 10 0 60154 81900.00000 0 14742024.596 -19638718.553 6954315.640 10 0 60154 82800.00000 0 14143903.127 -18777188.845 9939688.110 10 0 60154 83700.00000 0 13469398.670 -17548202.185 12732310.830 10 0 60154 84600.00000 0 12776233.118 -15964140.332 15278067.343 10 0 60154 85500.00000 0 12119930.351 -14050175.814 17527634.349 99